TimeCST,TemperatureF,Dew PointF,Humidity,Sea Level PressureIn,VisibilityMPH,Wind Direction,Wind SpeedMPH,Gust SpeedMPH,PrecipitationIn,Events,Conditions,WindDirDegrees,DateUTC
12:53 AM,44.1,39.0,82,29.95,10.0,NNE,10.4,-,N/A,,Overcast,20,2012-12-07 06:53:00
1:53 AM,44.1,39.0,82,29.94,10.0,NNE,9.2,-,N/A,,Overcast,30,2012-12-07 07:53:00
2:53 AM,44.1,39.0,82,29.95,10.0,NE,6.9,-,N/A,,Overcast,40,2012-12-07 08:53:00
3:53 AM,44.1,37.9,79,29.94,10.0,NE,5.8,-,N/A,,Overcast,40,2012-12-07 09:53:00
4:53 AM,43.0,37.9,82,29.94,10.0,NNE,6.9,-,N/A,,Overcast,20,2012-12-07 10:53:00
6:53 AM,43.0,37.0,80,29.93,10.0,ENE,4.6,-,N/A,,Overcast,60,2012-12-07 12:53:00
7:53 AM,42.1,36.0,79,29.94,10.0,NE,5.8,-,N/A,,Overcast,50,2012-12-07 13:53:00
8:53 AM,43.0,37.0,80,29.94,10.0,NNE,5.8,-,N/A,,Overcast,20,2012-12-07 14:53:00
9:53 AM,44.1,36.0,73,29.95,10.0,NE,5.8,-,N/A,,Overcast,50,2012-12-07 15:53:00
10:53 AM,44.1,36.0,73,29.94,10.0,ENE,5.8,-,N/A,,Overcast,60,2012-12-07 16:53:00
11:53 AM,46.0,37.0,71,29.91,10.0,ESE,4.6,-,N/A,,Overcast,110,2012-12-07 17:53:00
12:53 PM,46.0,37.0,71,29.88,10.0,Calm,Calm,-,N/A,,Overcast,0,2012-12-07 18:53:00
1:53 PM,46.9,37.0,68,29.88,10.0,Calm,Calm,-,N/A,,Overcast,0,2012-12-07 19:53:00
2:53 PM,46.9,37.0,68,29.89,10.0,North,5.8,-,N/A,,Overcast,350,2012-12-07 20:53:00
3:53 PM,45.0,37.9,76,29.90,8.0,North,5.8,-,N/A,,Overcast,360,2012-12-07 21:53:00
4:53 PM,45.0,39.0,80,29.90,9.0,NE,5.8,-,N/A,,Overcast,40,2012-12-07 22:53:00
5:27 PM,44.6,39.2,81,29.90,9.0,NE,3.5,-,N/A,,Overcast,40,2012-12-07 23:27:00
5:53 PM,44.1,39.0,82,29.91,9.0,NE,4.6,-,N/A,,Overcast,40,2012-12-07 23:53:00
7:53 PM,43.0,39.9,89,29.91,6.0,South,4.6,-,0.01,Rain,Light Rain,170,2012-12-08 01:53:00
8:53 PM,43.0,39.0,86,29.93,7.0,Calm,Calm,-,0.00,,Mostly Cloudy,0,2012-12-08 02:53:00
9:53 PM,39.9,37.9,93,29.95,4.0,NNW,3.5,-,N/A,,Clear,330,2012-12-08 03:53:00
10:00 PM,37.4,37.4,100,29.94,1.5,Calm,Calm,-,N/A,,Clear,0,2012-12-08 04:00:00
10:03 PM,37.4,35.6,93,29.93,0.8,Calm,Calm,-,N/A,,Mist,0,2012-12-08 04:03:00
10:11 PM,37.4,35.6,93,29.94,0.5,Calm,Calm,-,N/A,Fog,Fog,0,2012-12-08 04:11:00
10:30 PM,37.4,35.6,93,29.95,0.8,NNW,4.6,-,N/A,,Scattered Clouds,340,2012-12-08 04:30:00
10:37 PM,35.6,35.6,100,29.95,1.0,NNW,4.6,-,N/A,,Mist,330,2012-12-08 04:37:00
10:40 PM,35.6,35.6,100,29.95,0.8,NNW,3.5,-,N/A,,Scattered Clouds,340,2012-12-08 04:40:00
10:46 PM,35.6,33.8,93,29.95,0.2,NNW,3.5,-,N/A,Fog,Fog,340,2012-12-08 04:46:00
10:53 PM,34.0,34.0,100,29.98,0.2,NNW,3.5,-,N/A,Fog,Fog,330,2012-12-08 04:53:00
11:01 PM,33.8,33.8,100,29.96,0.5,Calm,Calm,-,N/A,Fog,Fog,0,2012-12-08 05:01:00
11:06 PM,35.6,33.8,93,29.96,1.0,Calm,Calm,-,N/A,,Overcast,0,2012-12-08 05:06:00
11:21 PM,35.6,35.6,100,29.97,3.0,NNW,3.5,-,N/A,,Overcast,340,2012-12-08 05:21:00
11:53 PM,37.9,37.0,97,29.98,3.0,NNE,5.8,-,N/A,,Overcast,30,2012-12-08 05:53:00